DW9073 Houston TX US current weather conditions

sailwx.info

Wind from 247

Air temperature 32.8° C
Dewpoint 26.6° C

Last reported at 2020-Aug-11 19:01 UTC.
Time now 2020-Aug-11 19:29 UTC

Location: N 29°33' W 095°05'.
View on Google Maps.

See reports from other nearby stations

  
Tides and Currents Weather Stations Pressure Air Temp Water Temp Dewpoint Dewpoint Depression Visibility Wind Speed Wind Dir Waves Ship Positions
date/time (UTC)wind fromknots sea level pressurealtimeterstation pressurevisibilityair tempwater tempwave heightnotes
2020-Aug-11 19:01 247 32.8
2020-Aug-11 18:46 222 3 gusting 8 33.3
2020-Aug-11 18:32 235 3 gusting 12 33.9
2020-Aug-11 18:16 233 4 gusting 7 34.4
2020-Aug-11 18:01 239 2 gusting 7 33.9
2020-Aug-11 17:46 222 3 gusting 6 33.3
2020-Aug-11 17:32 235 2 gusting 6 33.3
2020-Aug-11 17:16 233 0 gusting 5 32.8
2020-Aug-11 17:00 221 1 gusting 5 32.8
2020-Aug-11 16:45 230 2 gusting 5 32.2
2020-Aug-11 16:30 222 3 gusting 8 31.7
2020-Aug-11 16:15 259 0 gusting 9 32.2
2020-Aug-11 16:01 221 1 gusting 5 31.7
2020-Aug-11 15:45 220 3 gusting 6 31.1
2020-Aug-11 15:30 215 3 gusting 7 31.7
2020-Aug-11 15:15 249 1 gusting 5 31.7
2020-Aug-11 15:00 233 2 gusting 8 31.7
2020-Aug-11 14:45 231 3 gusting 6 30.6
2020-Aug-11 14:30 228 4 gusting 8 30.6
2020-Aug-11 14:15 226 1 gusting 7 31.1
2020-Aug-11 14:01 229 3 gusting 7 30.6
2020-Aug-11 13:47 240 2 gusting 9 30.6
2020-Aug-11 13:31 237 1 gusting 6 30.0
2020-Aug-11 13:17 232 1 gusting 7 29.4
2020-Aug-11 13:02 235 1 gusting 4 29.4
2020-Aug-11 12:46 234 1 gusting 3 28.3
2020-Aug-11 12:31 234 1 gusting 4 28.3
2020-Aug-11 12:16 234 28.3
2020-Aug-11 12:01 234 28.3
2020-Aug-11 11:46 234 0 gusting 3 28.3
2020-Aug-11 11:31 234 0 gusting 2 28.3
2020-Aug-11 11:16 234 0 gusting 4 28.3
2020-Aug-11 11:01 234 28.3
2020-Aug-11 10:46 236 0 gusting 4 28.3
2020-Aug-11 10:31 236 0 gusting 2 28.3
2020-Aug-11 10:16 236 28.3
2020-Aug-11 10:00 236 1 gusting 4 28.3
2020-Aug-11 09:46 236 28.3
2020-Aug-11 09:31 236 0 gusting 3 28.3
2020-Aug-11 09:16 235 28.3
2020-Aug-11 09:00 235 28.3
2020-Aug-11 08:45 235 28.3
2020-Aug-11 08:30 235 28.3
2020-Aug-11 08:15 235 0 gusting 2 28.3
2020-Aug-11 08:00 235 28.3
2020-Aug-11 07:45 235 28.3
2020-Aug-11 07:30 235 28.3
2020-Aug-11 07:15 235 0 gusting 4 28.9
2020-Aug-11 07:00 236 0 gusting 3 28.9
2020-Aug-11 06:46 237 0 gusting 4 28.9
2020-Aug-11 06:30 237 28.9
2020-Aug-11 06:15 237 0 gusting 4 28.9
2020-Aug-11 06:00 237 28.9
2020-Aug-11 05:45 237 28.9
2020-Aug-11 05:30 237 0 gusting 4 28.9
2020-Aug-11 05:15 239 1 gusting 5 28.9
2020-Aug-11 05:00 236 1 gusting 5 28.9
2020-Aug-11 04:45 237 0 gusting 6 28.9
2020-Aug-11 04:30 241 1 gusting 5 28.9
2020-Aug-11 04:15 242 1 gusting 5 29.4
2020-Aug-11 04:00 237 1 gusting 5 29.4
2020-Aug-11 03:45 232 0 gusting 2 29.4
2020-Aug-11 03:30 233 29.4
2020-Aug-11 03:15 241 1 gusting 6 29.4
2020-Aug-11 03:00 243 1 gusting 4 29.4
2020-Aug-11 02:45 247 2 gusting 6 29.4
2020-Aug-11 02:30 243 2 gusting 5 30.0
2020-Aug-11 02:15 239 1 gusting 7 30.0
2020-Aug-11 02:00 245 2 gusting 7 30.0
2020-Aug-11 01:45 237 2 gusting 7 30.0
2020-Aug-11 01:30 245 1 gusting 7 30.6
2020-Aug-11 01:15 253 3 gusting 8 30.6
2020-Aug-11 01:00 251 4 gusting 9 30.6
2020-Aug-11 00:45 097 1 gusting 8 31.1
2020-Aug-11 00:30 099 1 gusting 7 31.1
2020-Aug-11 00:18 143 1 gusting 10 31.1
2020-Aug-11 00:02 255 5 gusting 10 31.7
2020-Aug-10 23:47 203 5 gusting 13 31.7
2020-Aug-10 23:31 229 2 gusting 10 31.7
2020-Aug-10 23:17 125 4 gusting 11 31.7
2020-Aug-10 23:02 202 5 gusting 9 32.2
2020-Aug-10 22:46 102 2 gusting 8 32.2
2020-Aug-10 22:32 099 4 gusting 11 32.2
2020-Aug-10 22:16 087 2 gusting 8 32.8
2020-Aug-10 22:02 095 1 gusting 9 32.8
2020-Aug-10 21:46 200 0 gusting 10 33.3
2020-Aug-10 21:32 244 2 gusting 14 33.3
2020-Aug-10 21:16 084 0 gusting 10 33.3
2020-Aug-10 21:01 112 2 gusting 8 33.9
2020-Aug-10 20:46 239 2 gusting 10 33.3
2020-Aug-10 20:32 089 2 gusting 9 33.3
2020-Aug-10 20:16 105 3 gusting 12 33.3
2020-Aug-10 20:01 249 3 gusting 10 33.9
2020-Aug-10 19:47 241 3 gusting 8 33.9
2020-Aug-10 19:32 101 3 gusting 11 33.9
2020-Aug-10 19:15 205 6 gusting 12 33.9
2020-Aug-10 19:01 247 3 gusting 11 33.9
2020-Aug-10 18:46 228 4 gusting 10 33.9
2020-Aug-10 18:31 245 4 gusting 9 33.9
2020-Aug-10 18:16 235 3 gusting 10 33.3
2020-Aug-10 18:00 243 4 gusting 11 33.3
2020-Aug-10 17:45 227 2 gusting 11 33.3
2020-Aug-10 17:30 241 4 gusting 9 32.8
2020-Aug-10 17:15 235 4 gusting 9 33.3
2020-Aug-10 17:01 243 1 gusting 10 32.8
2020-Aug-10 16:45 241 2 gusting 11 32.8
2020-Aug-10 16:31 226 3 gusting 9 32.8
2020-Aug-10 16:15 235 4 gusting 10 32.8
2020-Aug-10 16:00 231 3 gusting 10 32.8
2020-Aug-10 15:45 231 3 gusting 7 31.7
2020-Aug-10 15:30 222 2 gusting 9 31.7
2020-Aug-10 15:15 237 4 gusting 8 31.7
2020-Aug-10 15:00 231 1 gusting 8 31.1
2020-Aug-10 14:45 245 2 gusting 8 31.7
2020-Aug-10 14:16 241 3 gusting 8 31.1
2020-Aug-10 14:02 242 1 gusting 8 30.6
2020-Aug-10 13:46 245 1 gusting 6 30.6
2020-Aug-10 13:31 246 30.0
2020-Aug-10 13:16 245 1 gusting 5 29.4
2020-Aug-10 13:01 245 28.9
2020-Aug-10 12:46 245 28.3
2020-Aug-10 12:31 245 0 gusting 4 27.8
2020-Aug-10 12:16 245 27.8
2020-Aug-10 12:01 245 27.8
2020-Aug-10 11:46 245 27.8
2020-Aug-10 11:30 245 0 gusting 2 27.8
2020-Aug-10 11:15 245 27.8
2020-Aug-10 11:01 245 27.8
2020-Aug-10 10:46 245 27.8
2020-Aug-10 10:30 245 27.8
2020-Aug-10 10:16 245 27.8
2020-Aug-10 10:00 245 27.8
2020-Aug-10 09:45 245 27.8
2020-Aug-10 09:30 245 0 gusting 3 27.8
2020-Aug-10 09:15 245 27.8
2020-Aug-10 09:00 245 0 gusting 3 27.8
2020-Aug-10 08:45 245 1 gusting 4 27.8
2020-Aug-10 08:30 245 27.8
2020-Aug-10 08:15 245 27.8
2020-Aug-10 08:01 245 27.8
2020-Aug-10 07:45 245 0 gusting 2 28.3
2020-Aug-10 07:30 245 0 gusting 4 28.3
2020-Aug-10 07:15 246 0 gusting 4 28.3
2020-Aug-10 07:00 246 28.3
2020-Aug-10 06:45 246 1 gusting 4 28.3
2020-Aug-10 06:30 246 2 gusting 5 28.3
2020-Aug-10 06:15 249 1 gusting 5 28.3
2020-Aug-10 06:00 251 0 gusting 5 28.3
2020-Aug-10 05:45 240 2 gusting 5 28.3
2020-Aug-10 05:30 240 0 gusting 5 28.3
2020-Aug-10 05:15 245 2 gusting 6 28.3
2020-Aug-10 05:03 235 2 gusting 6 28.3
2020-Aug-10 04:47 240 0 gusting 4 28.3
2020-Aug-10 04:31 238 0 gusting 5 28.3
2020-Aug-10 04:16 239 1 gusting 5 28.3
2020-Aug-10 04:01 238 0 gusting 3 28.9
2020-Aug-10 03:48 239 0 gusting 3 28.9
2020-Aug-10 03:32 239 1 gusting 4 28.9
2020-Aug-10 03:16 238 0 gusting 5 28.9
2020-Aug-10 03:01 241 1 gusting 5 28.9
2020-Aug-10 02:46 241 2 gusting 7 29.4
2020-Aug-10 02:31 234 1 gusting 4 29.4
2020-Aug-10 02:17 234 1 gusting 5 29.4
2020-Aug-10 02:01 239 3 gusting 8 29.4
2020-Aug-10 01:46 236 2 gusting 7 30.0
2020-Aug-10 01:31 228 3 gusting 9 30.0
2020-Aug-10 01:16 235 3 gusting 8 30.0
2020-Aug-10 01:01 239 4 gusting 10 30.0
2020-Aug-10 00:48 222 3 gusting 11 30.6
2020-Aug-10 00:32 227 5 gusting 11 30.6
2020-Aug-10 00:16 210 3 gusting 12 30.6
2020-Aug-10 00:01 241 4 gusting 9 30.6
2020-Aug-09 23:46 224 4 gusting 9 30.6
2020-Aug-09 23:31 234 4 gusting 9 30.6
2020-Aug-09 23:17 262 5 gusting 11 30.6
2020-Aug-09 23:01 224 6 gusting 12 30.6
2020-Aug-09 22:45 247 5 gusting 10 30.6
2020-Aug-09 22:30 237 6 gusting 9 30.6
2020-Aug-09 22:16 175 3 gusting 10 30.6
2020-Aug-09 22:01 251 5 gusting 11 30.6
2020-Aug-09 21:46 224 6 gusting 12 30.6
2020-Aug-09 21:30 117 2 gusting 16 31.1
2020-Aug-09 21:15 206 5 gusting 10 31.7
2020-Aug-09 21:01 201 9 gusting 13 32.8
2020-Aug-09 20:46 218 2 gusting 8 32.8
2020-Aug-09 20:32 220 6 gusting 9 32.8
2020-Aug-09 20:15 216 3 gusting 10 32.2
2020-Aug-09 20:01 231 6 gusting 9 32.2
2020-Aug-09 19:46 218 4 gusting 7 32.2
2020-Aug-09 19:31 220 1 gusting 8 32.2
2020-Aug-09 19:16 211 2 gusting 6 31.7
2020-Aug-09 19:00 222 3 gusting 10 32.2